Location: Le Mont
(45.7752°N, 1.9570°E)
Time: 14:36:10
(UTC+00:00)

Daily predictions for brighter satellites

Satellite Brightness Start Highest point End
(mag) Time Altitude Azimuth Time Altitude Azimuth Time Altitude Azimuth
USA 267 3.5 16:33:19 10° NE 16:39:50 64° SE 16:46:18 10° SW
SMAP 3.5 16:36:36 10° SE 16:40:56 41° ENE 16:45:19 10° N
Cosmos 1743 Rocket 3.5 16:41:48 10° N 16:46:09 78° E 16:50:29 10° SSE
Cosmos 1763 Rocket 3.5 16:41:59 10° SSW 16:47:03 84° WNW 16:52:13 10° NNE
Meteor 1-25 Rocket 4.2 16:42:12 10° N 16:47:47 70° ENE 16:53:23 10° SSE
ARGOS 4.4 16:44:08 10° ESE 16:47:53 19° ENE 16:51:37 10° NNE
Cosmos 1634 Rocket 4.4 16:42:22 10° SSE 16:48:20 45° E 16:54:18 10° NNE
Cosmos 2278 4.2 16:44:05 10° NNW 16:49:22 37° NE 16:54:35 10° ESE
Cosmos 2026 Rocket 4.1 16:44:38 10° N 16:50:38 52° ENE 16:56:31 10° SSE
Cosmos 1602 3.8 16:47:18 10° N 16:51:07 54° E 16:54:54 10° SSE
Cosmos 44 Rocket 4.3 16:49:34 10° NNW 16:53:46 27° NE 16:57:51 10° E
Cosmos 1833 Rocket 2.8 16:48:20 10° SSW 16:53:57 87° WNW 16:59:39 10° NNE
SJ 16-02 4.4 16:51:50 10° WNW 16:54:27 16° W 16:57:04 10° SW
Cosmos 2195 Rocket 4.5 16:48:35 10° N 16:54:45 67° E 17:00:55 10° SSE
Cosmos 841 Rocket 3.7 16:50:27 10° S 16:55:26 52° ESE 17:00:26 10° NNE
CZ-2C R/B 3.0 16:51:02 10° SSE 16:55:55 82° WSW 17:00:42 10° NNW
SeaSat 1 4.3 16:52:09 10° N 16:56:06 25° NW 17:00:03 10° W
USA 229 DEB 4.3 16:49:32 10° NW 16:56:54 74° SW 17:04:41 10° SSE
USA 229 4.3 16:49:37 10° NW 16:56:59 75° SW 17:04:46 10° SSE
Cosmos 1666 Rocket 4.4 16:53:27 10° NNE 16:57:21 29° ENE 17:01:12 10° SE
Okean O Rocket 3.0 16:54:51 10° ESE 16:57:50 18° ENE 17:00:49 10° NNE
USA 306 4.1 16:56:47 10° NW 17:00:26 27° N 17:03:36 13° ENE
H-2A R/B 2.5 16:56:34 10° SE 17:01:12 35° ENE 17:05:45 10° N
Cosmos 1939 Rocket 2.8 16:58:16 10° SSE 17:02:20 70° ENE 17:06:25 10° N
Cosmos 1937 Rocket 3.5 16:57:00 10° NNW 17:02:23 86° ENE 17:07:41 10° SSE
Cosmos 1809 Rocket 4.4 16:56:40 10° N 17:02:46 72° E 17:08:48 10° SSE
COSMOS 2406 3.3 16:57:22 10° SSW 17:03:07 86° ESE 17:08:53 10° NNE
ISS -3.8 17:00:49 10° WNW 17:04:13 80° NNE 17:07:36 10° ESE
ATLAS 2AS CENTAUR R/B 4.5 16:59:34 10° NW 17:04:56 20° N 17:10:06 10° NE
Cosmos 372 Rocket 4.0 17:01:58 10° NNW 17:07:11 62° ENE 17:12:22 10° SSE
CZ-2C R/B 3.6 17:04:17 10° NE 17:08:34 25° E 17:12:49 10° SSE
Cosmos 1500 3.1 17:07:19 10° N 17:11:01 59° E 17:14:41 10° SSE
USA 234 3.2 17:06:54 10° ESE 17:13:24 71° NNE 17:19:54 10° NW
Cosmos 1782 2.7 17:11:57 10° S 17:15:55 74° E 17:19:54 10° NNE
CZ-2D R/B 3.4 17:14:06 10° SSE 17:17:46 47° ENE 17:21:27 10° N
Sich 1 2.9 17:14:20 10° N 17:18:39 85° E 17:22:59 10° S
SL-08 R/B 4.5 17:15:27 10° N 17:19:53 42° WNW 17:24:14 10° SW
USA 307 4.0 17:16:28 10° NW 17:20:11 28° N 17:22:25 18° NE
CZ-4B R/B 3.5 17:15:12 10° SE 17:20:12 40° ENE 17:25:10 10° N
NOAA 6 4.1 17:18:05 10° SSE 17:23:13 83° WSW 17:28:23 10° NNW
NOSS 2-2 (D) 4.5 17:18:42 10° NW 17:23:59 87° SW 17:31:27 10° SE
ATLAS 5 CENTAUR R/B 3.0 17:17:33 10° NW 17:24:43 31° NNE 17:26:27 21° ENE
Cosmos 1805 Rocket 4.0 17:21:41 10° NNW 17:25:58 63° W 17:30:14 10° S
PAYLOAD B 4.2 17:20:48 10° SSE 17:26:20 65° ENE 17:31:53 10° N
SL-24 R/B - RUBIN 2 3.8 17:24:18 10° NW 17:28:49 73° SW 17:33:06 10° SSE
deb Chang Zheng 4 4.0 17:26:18 10° SE 17:30:18 39° ENE 17:34:19 10° N
Cosmos 540 Rocket 4.1 17:30:10 10° SW 17:35:10 56° WNW 17:40:14 10° NNE
Cosmos 2360 Rocket 3.5 17:32:59 10° N 17:37:02 19° NE 17:37:22 19° NE
Lacrosse 5 rocket 1.6 17:33:41 10° NW 17:37:27 45° NNE 17:39:14 27° E
Cosmos 1666 2.5 17:36:24 10° N 17:40:07 72° E 17:43:49 10° SSE
USA 308 3.9 17:39:07 10° NW 17:42:57 31° NNE 17:44:08 27° NE
Cosmos 1515 Rocket 4.3 17:40:12 10° SSE 17:44:07 31° E 17:44:47 30° ENE
Meteor 2-16 Rocket 4.4 17:43:34 10° N 17:49:44 86° E 17:55:52 10° S
COSMOS 2455 3.3 17:45:31 10° SW 17:51:28 61° NW 17:56:40 14° NNE
Meteor 1-10 Rocket 4.4 17:46:05 10° SSE 17:51:35 48° E 17:56:15 14° NNE
Meteor 1-11 Rocket 4.0 17:47:28 10° N 17:52:48 42° ENE 17:58:14 10° SE
PSLV R/B 4.3 17:49:36 10° S 17:53:13 56° W 17:56:55 10° NNW
Cosmos 1814 Rocket 4.1 17:51:17 10° SSW 17:56:31 78° WNW 18:00:57 14° NNE
Cosmos 921 Rocket 3.0 17:52:48 10° S 17:56:52 52° ESE 17:57:55 40° ENE
YAOGAN 3 4.5 17:53:09 10° SSE 17:57:27 63° ENE 18:01:47 10° N
Cosmos 1570 Rocket 4.0 17:52:21 10° SSW 17:57:36 87° WNW 18:01:47 16° NNE
Cosmos 2322 Rocket 2.7 17:53:31 10° NNW 17:58:49 38° NE 18:00:16 33° E
SL-08 RB Rocket 3.9 17:55:07 10° SE 17:59:34 47° ENE 18:03:59 10° N
Cosmos 2298 Rocket 4.0 17:57:01 10° NNW 18:02:19 62° ENE 18:07:35 10° SSE
COSMO-SKYMED 1 2.4 17:59:54 21° NNE 18:02:45 75° ESE 18:07:05 10° S
Cosmos 1980 Rocket 3.2 17:57:58 10° NW 18:03:24 48° WSW 18:08:45 10° S
CZ-4C R/B 3.2 17:56:56 10° NW 18:04:15 77° SW 18:12:45 10° SSE
Cosmos 1812 3.7 18:02:23 10° SSW 18:06:06 47° WNW 18:09:51 10° N
Cosmos 1633 Rocket 3.4 18:03:16 10° NNW 18:07:37 65° W 18:11:57 10° S
USA 305 3.5 18:04:35 10° NW 18:08:36 39° NNE 18:08:38 39° NNE
Meteor 2-15 Rocket 4.4 18:02:39 10° S 18:08:37 57° E 18:14:07 12° NNE
Helios 1B 4.4 18:07:44 25° NNE 18:10:14 86° E 18:14:34 10° SSW
Feng Yun 1-1 Rocket 4.3 18:05:01 10° SSE 18:10:47 59° ENE 18:16:32 10° N
YAOGAN 1 4.5 18:14:04 17° N 18:14:04 17° N 18:15:10 10° N
CZ-4 R/B 4.3 18:08:34 10° SSE 18:12:42 87° ENE 18:16:52 10° NNW
Cosmos 1151 Rocket 3.9 18:08:55 10° SSW 18:13:07 50° WNW 18:17:23 10° N
CZ-2C R/B 3.4 18:11:06 10° SSW 18:13:45 16° S 18:14:25 16° SSE
Cosmos 2279 Rocket 4.3 18:07:34 10° SSW 18:13:45 67° W 18:19:57 10° N
Cosmos 1818 3.6 18:10:11 10° NW 18:15:41 84° SW 18:20:30 13° SSE
Aureole 3 Rocket 4.1 18:13:49 10° SSE 18:16:26 34° SE 18:16:26 34° SE
SL-16 R/B 2.1 18:12:27 10° NNW 18:18:07 66° ENE 18:21:04 29° SE
Cosmos 2266 Rocket 3.9 18:12:03 10° N 18:18:28 77° E 18:24:53 10° SSE
Cosmos 2082 Rocket 3.3 18:15:01 10° SW 18:20:24 42° NW 18:24:53 15° N
USA 267 3.7 18:19:25 28° NE 18:22:46 52° NNW 18:29:02 10° W
NOAA 15 4.5 18:18:55 10° SSE 18:24:07 62° ENE 18:29:20 10° N
Landsat 5 3.2 18:25:10 83° N 18:25:19 89° WNW 18:29:16 10° SSW
ARGOS 3.4 18:22:12 10° S 18:27:36 70° WSW 18:33:01 10° NNW
GEOS 3 Rocket 3.8 18:30:35 50° NNE 18:30:35 50° NNE 18:35:21 10° NNW
Meteor 2-15 4.5 18:24:41 10° SSW 18:30:47 78° W 18:36:55 10° N
X-37B 3.2 18:29:08 10° SW 18:29:43 14° SSW 18:29:43 14° SSW
Cosmos 2333 Rocket 3.8 18:28:44 10° N 18:31:06 20° NNE 18:31:06 20° NNE
Okean O Rocket 2.3 18:29:24 10° S 18:33:45 55° W 18:38:10 10° NNW
Cosmos 44 Rocket 3.8 18:30:49 10° NW 18:35:37 56° WSW 18:38:15 25° S
Cosmos 1470 Rocket 4.3 18:34:24 10° NNW 18:38:45 52° W 18:43:05 10° S
Cosmos 2150 Rocket 4.1 18:33:35 10° NNW 18:38:46 72° WSW 18:43:58 10° SSE
Cosmos 1867 3.9 18:34:13 10° SSW 18:38:42 50° SSE 18:38:42 50° SSE
H-2A R/B 3.8 18:36:05 10° SSW 18:40:38 32° W 18:45:08 10° NNW
ISS -1.2 18:38:19 10° W 18:40:41 18° SW 18:41:23 17° SSW
USA 306 4.0 18:36:48 10° NW 18:39:36 36° NNW 18:39:36 36° NNW
USA 32 4.0 18:43:33 10° S 18:48:46 83° W 18:49:26 68° NNW
CZ-2C R/B 3.5 18:44:30 12° N 18:49:04 44° WNW 18:53:56 10° SW
Cosmos 2219 Rocket 4.1 18:45:03 10° N 18:46:30 16° N 18:46:30 16° N
Cosmos 1125 Rocket 3.9 18:45:37 10° NNW 18:50:48 61° WSW 18:54:41 18° S
ATLAS CENTAUR R/B 3.9 18:48:53 10° W 18:54:08 24° NNW 18:54:28 24° NNW
Meteor 1-27 Rocket 3.6 18:50:56 10° SSW 18:56:27 81° W 18:56:41 79° NW
USA 234 4.4 18:50:36 10° SSE 18:56:41 40° SW 19:02:46 10° WNW
ATLAS 2AS CENTAUR R/B 4.1 18:52:49 10° NNW 18:58:02 24° NNE 18:58:02 24° NNE
Lacrosse 5 rocket 3.6 19:12:53 10° WNW 19:14:52 23° W 19:14:52 23° W
Cosmos 2360 Rocket 3.4 19:16:07 10° NNW 19:19:09 33° NNW 19:19:09 33° NNW
Cosmos 2322 Rocket 3.5 19:37:38 10° NW 19:42:10 36° W 19:42:10 36° W
SL-16 R/B 4.4 19:57:39 10° NW 20:01:39 20° W 20:03:05 18° WSW
